Weather in Palm Beach

Aruba     12°34′29″N   70°02′37″W
temp.,
°C
wind,
m/s
gust,
m/s
humid.,
%
clouds,
%
prec.,
mm/h
press.,
hPa
HPBL,
m
16 october, sat
sat1623:00+29ene79821 0.0 1011815
02:00+29e888210 0.0 1009856
05:00+29e7878100 0.0 1009791
08:00+29e678164 0.0 1011832
11:00+29e778159 0.1 1012775
14:00+29e677899 0.1 1009781
17:00+29ene678112 0.0 1008664
20:00+29ene898520 0.4 1010680
17 october, sun
sun1723:00+29ene688399 0.5 1011716
02:00+28ene5682100 1.7 1010559
05:00+29ene677857 0.2 1010658
08:00+29e678179 0.2 1012797
11:00+29e6680100 0.1 1012791
14:00+29e667665 0.3 1009789
17:00+29ene777911 0.0 1008737
20:00+29ene798398 2.6 1010608
18 october, mon
mon1823:00+29e81083100 4.1 1011761
02:00+29e81082100 4.7 1009705
05:00+29e8982100 0.4 1009770
08:00+29e91082100 0.6 1011892
11:00+29e898318 0.3 1011893
14:00+29e8981100 0.3 1009884
17:00+29ene898265 0.0 1007730
20:00+29e898369 1.6 1010647
19 october, tue
tue1923:00+28e7881100 3.4 1011501
02:00+28e6779100 6.4 1010656
05:00+29e7878100 1.8 1011793
08:00+29e777899 2.3 1013979
11:00+29e687883 0.0 1013867
14:00+29e7877100 0.1 1011812
17:00+29e788014 0.0 1010827
20:00+29ene79825 0.0 1012823
20 october, wed
wed2023:00+29e78806 0.2 1013894
02:00+29e77783 0.8 1012847
05:00+28e677766 0.3 1011787
08:00+29e6776100 1.9 1013944
11:00+29e677698 1.8 1014729
14:00+29e6775100 2.1 1012883
17:00+29e7875100 0.0 1011891
20:00+29e8978100 0.0 1012954